Dauntless Aviation
Greetings, Guest! To participate, [sign up for a free account] or [log in]
Airports Europe Croatia
LDDU
DBV

Dubrovnik

Dubrovnik, CROATIA

Airport Info
Edit

Location

Latitude / Longitude: 42°33'41"N / 18°16'5"E
  42°33.684'N / 18°16.092'E
  42.5614 / 18.2682

Nearby radio navigation aids

CV DUBROVNIK NDB. 117.6° 2.8nm from CV to field.
DBK DUBROVNIK VOR/DME on field.
GR DUBROVNIK NDB. 294.2° 2.9nm from GR to field.
KLP KOLOCEP NDB. 118.0° 12.7nm from KLP to field.

Runway Information

Runway 12 /30

Dimensions: 10827 x 148 ft.
Surface: ASP
 
Runway 12
Runway 30
Latitude: 42.569225 42.555819
Longitude: 18.2484 18.282192
Elevation: 519 ft. 519 ft.
Runway true heading: 117.6 297.6
 

Instrument Procedures

  Aerodrome Chart
  Aircraft Parking/Docking Chart

STARs (Standard Terminal Arrivals)

  STAR - Instrument (STAR) - Rwy 12/30

IAPs (Instrument Approach Procedures)

  Visual Manoeuvering - Circling Chart (IFR) - Circling Rwy 30
  Aerodrome Obstacle Chart - Type A - Rwy 30
  Aerodrome Obstacle Chart - Type A - Rwy 12
  VOR Rwy 12
  Bird Concentrations
  Visual Operation Chart
  VOR-A Rwy 30
  L Rwy 12
  ILS or LOC Rwy 12
  ATC Surveillance Minimum Altitude Chart

Departure Procedures

  SID - Instrument (SID) - Rwy 30
  SID - Instrument (SID) - Rwy 12
Satellite photo at:
Airport distance calculator
From:
Weather Reports

METAR

LDDU

LDDU 190300Z 02008KT 340V060 CAVOK 10/03 Q1022 NOSIG
LYTV
22.6nm E
LYTV 190300Z VRB01KT CAVOK 03/02 Q1022

TAF

LDDU
TAF LDDU 182325Z 1900/1924 03012KT 9999 FEW030 TX14/1912Z TN07/1905Z PROB30 TEMPO 1900/1908 03018G28KT BECMG 1909/1911 29005KT
LYTV
22.6nm E
TAF LYTV 182300Z 1900/1924 VRB02KT CAVOK TX16/1912Z TN03/1906Z PROB40 TEMPO 1900/1907 03012KT
Safelog

 

Dauntless Aviation

© 2007-2014 Dauntless Aviation, all rights reserved
Information provided via PilotNav comes from a variety of official and unofficial data sources. As errors are possible, do not use PilotNav for primary flight planning purposes. Verify any information that you receive via PilotNav with current and canonical charts and other official documents. The material in this database is subject to database copyrights held by Dauntless Aviation and may not be copied without the express permission of Dauntless Aviation - licenses for use of part of all of this data are available for purchase; enquire via the Dauntless Aviation helpdesk. A number of mechanisms and markers exist in the database to protect against and identify infringement / copyright. Automated queries against this website are stictly prohibited, and all activity is logged and analyzed.